FW0324 Weather Reports


Display with metric or nautical units.
time (UTC)temp
F
wind
direction
speed
MPH
gust
MPH
rain 1hr
in
rain 24hr
in
rain mn
in
humidity
%
barometer
mb
20260505041537 60 142 0.0 0.0 0.00 0.00 0.00 85 1013.5
20260505041026 60 142 0.0 0.0 0.00 0.00 0.00 85 1013.5
20260505040526 60 142 0.0 0.0 0.00 0.00 0.00 85 1013.5
20260505040037 60 142 0.0 0.0 0.00 0.00 0.00 84 1013.7
20260505035525 61 142 0.0 0.0 0.00 0.00 0.00 84 1013.7
20260505035025 61 142 0.0 0.0 0.00 0.00 0.00 83 1013.7
20260505034527 61 142 0.0 0.0 0.00 0.00 0.00 82 1013.7
20260505034025 61 142 0.0 0.0 0.00 0.00 0.00 82 1013.7
20260505033525 61 142 0.0 0.0 0.00 0.00 0.00 82 1013.7
20260505033025 61 142 0.0 0.0 0.00 0.00 0.00 82 1013.7
20260505032525 62 142 0.0 0.0 0.00 0.00 0.00 81 1013.7
20260505032025 62 142 0.0 0.0 0.00 0.00 0.00 81 1013.7
20260505031535 62 142 0.0 0.0 0.00 0.00 0.00 81 1013.7
20260505031023 62 142 0.0 0.0 0.00 0.00 0.00 81 1013.7
20260505030523 62 145 0.0 0.0 0.00 0.00 0.00 80 1013.7
20260505030023 63 145 0.0 0.0 0.00 0.00 0.00 78 1013.6
20260505025524 63 145 0.0 0.0 0.00 0.00 0.00 78 1013.6
20260505025022 63 145 0.0 0.0 0.00 0.00 0.00 77 1013.6
20260505024522 63 145 0.0 0.0 0.00 0.00 0.00 76 1013.7
20260505024023 64 145 0.0 0.0 0.00 0.00 0.00 75 1013.7
20260505023523 64 145 0.0 0.0 0.00 0.00 0.00 74 1013.6
20260505023022 64 145 0.0 0.0 0.00 0.00 0.00 75 1013.7
20260505022523 64 145 0.0 0.0 0.00 0.00 0.00 74 1013.8
20260505022022 65 145 0.0 0.0 0.00 0.00 0.00 73 1013.7
20260505021522 65 144 0.0 0.0 0.00 0.00 0.00 72 1013.7
20260505021021 65 144 0.0 0.0 0.00 0.00 0.00 72 1013.7
20260505020521 66 144 0.0 0.0 0.00 0.00 0.00 71 1013.7
20260505020022 66 144 0.0 0.0 0.00 0.00 0.00 70 1013.6
20260505015522 66 144 0.0 0.0 0.00 0.00 0.00 70 1013.5
20260505015022 66 144 0.0 0.0 0.00 0.00 0.00 70 1013.5
20260505014531 67 144 0.0 0.0 0.00 0.00 0.00 69 1013.5
20260505014021 67 144 0.0 0.0 0.00 0.00 0.00 69 1013.5
20260505013520 67 144 0.0 0.0 0.00 0.00 0.00 68 1013.4
20260505013021 68 144 0.0 0.0 0.00 0.00 0.00 68 1013.4
20260505012520 68 144 0.0 0.0 0.00 0.00 0.00 68 1013.3
20260505012021 68 144 0.0 0.0 0.00 0.00 0.00 67 1013.1
20260505011518 69 144 0.0 0.0 0.00 0.00 0.00 65 1013.2
20260505011020 69 144 0.0 2.0 0.00 0.00 0.00 64 1013.3
20260505010519 69 144 0.0 2.0 0.00 0.00 0.00 64 1013.3
20260505010023 69 130 1.0 2.0 0.00 0.00 0.00 63 1013.2
20260505005518 69 112 0.0 2.0 0.00 0.00 0.00 62 1013.4
20260505005019 70 112 1.0 5.0 0.00 0.00 0.00 62 1013.4
20260505004518 70 110 1.0 5.0 0.00 0.00 0.00 61 1013.3
20260505004016 71 135 1.0 4.0 0.00 0.00 0.00 60 1013.4
20260505003517 71 138 2.0 4.0 0.00 0.00 0.00 60 1013.7
20260505003017 71 134 2.0 6.0 0.00 0.00 0.00 59 1013.7
20260505002516 72 122 3.0 6.0 0.00 0.00 0.00 58 1013.4
20260505002015 72 136 2.0 7.0 0.00 0.00 0.00 58 1013.6
20260505001515 72 165 3.0 7.0 0.00 0.00 0.00 57 1013.6
20260505001013 73 127 3.0 5.0 0.00 0.00 0.00 56 1013.7
20260505000519 73 107 2.0 5.0 0.00 0.00 0.00 56 1013.7
20260505000013 73 151 3.0 9.0 0.00 0.00 0.00 55 1013.8
20260504235514 73 150 2.0 10.0 0.00 0.00 0.00 55 1013.9
20260504235018 73 125 3.0 10.0 0.00 0.00 0.00 55 1013.7
20260504234513 74 113 2.0 8.0 0.00 0.00 0.00 54 1013.6
20260504234012 74 138 2.0 8.0 0.00 0.00 0.00 55 1013.7
20260504233516 74 128 2.0 7.0 0.00 0.00 0.00 55 1013.8
20260504233011 74 197 3.0 8.0 0.00 0.00 0.00 54 1013.7
20260504232513 74 190 2.0 8.0 0.00 0.00 0.00 53 1013.8
20260504232012 74 215 2.0 8.0 0.00 0.00 0.00 52 1013.9
20260504231509 74 155 2.0 8.0 0.00 0.00 0.00 52 1013.9
20260504231009 74 192 4.0 8.0 0.00 0.00 0.00 53 1014.0
20260504230509 74 173 4.0 9.0 0.00 0.00 0.00 50 1013.9
20260504230011 75 209 4.0 9.0 0.00 0.00 0.00 49 1013.9
20260504225509 75 179 3.0 11.0 0.00 0.00 0.00 54 1014.0
20260504225009 76 195 6.0 11.0 0.00 0.00 0.00 49 1014.0
20260504224508 76 176 6.0 10.0 0.00 0.00 0.00 47 1014.1
20260504224007 76 167 5.0 10.0 0.00 0.00 0.00 48 1013.9
20260504223507 76 159 3.0 9.0 0.00 0.00 0.00 49 1014.0
20260504223008 76 183 3.0 8.0 0.00 0.00 0.00 49 1014.0
20260504222506 76 178 4.0 7.0 0.00 0.00 0.00 46 1014.1
20260504222005 76 186 3.0 8.0 0.00 0.00 0.00 45 1014.1
20260504221504 76 131 3.0 10.0 0.00 0.00 0.00 45 1013.9
20260504221004 76 123 5.0 14.0 0.00 0.00 0.00 44 1014.1
20260504220503 76 197 4.0 11.0 0.00 0.00 0.00 43 1014.2
20260504220010 76 176 6.0 11.0 0.00 0.00 0.00 43 1014.3
20260504215503 77 159 6.0 9.0 0.00 0.00 0.00 43 1014.3
20260504215002 77 138 4.0 9.0 0.00 0.00 0.00 45 1014.4
20260504214505 77 152 3.0 14.0 0.00 0.00 0.00 45 1014.4
20260504214002 78 191 7.0 14.0 0.00 0.00 0.00 41 1014.4
20260504213501 78 140 2.0 10.0 0.00 0.00 0.00 47 1014.4
20260504213106 78 121 6.0 13.0 0.00 0.00 0.00 43 1014.3
20260504213003 78 144 5.0 13.0 0.00 0.00 0.00 42 1014.3
20260504212503 78 198 5.0 9.0 0.00 0.00 0.00 44 1014.4
20260504212100 78 157 3.0 10.0 0.00 0.00 0.00 47 1014.2
20260504211601 78 134 5.0 10.0 0.00 0.00 0.00 40 1014.3
20260504211058 78 182 2.0 10.0 0.00 0.00 0.00 40 1014.4
20260504210601 78 178 3.0 10.0 0.00 0.00 0.00 44 1014.4
20260504210101 78 207 5.0 12.0 0.00 0.00 0.00 40 1014.5
20260504205601 78 196 7.0 13.0 0.00 0.00 0.00 39 1014.5
20260504205056 78 169 7.0 13.0 0.00 0.00 0.00 40 1014.6
20260504204556 78 181 5.0 9.0 0.00 0.00 0.00 42 1014.6
20260504204054 78 198 4.0 10.0 0.00 0.00 0.00 42 1014.8
20260504203555 78 113 2.0 10.0 0.00 0.00 0.00 42 1014.7
20260504203107 78 178 4.0 11.0 0.00 0.00 0.00 43 1014.8
20260504202552 78 177 5.0 12.0 0.00 0.00 0.00 39 1015.0
20260504202052 78 153 5.0 12.0 0.00 0.00 0.00 43 1015.1
20260504201555 78 151 3.0 11.0 0.00 0.00 0.00 44 1015.1
20260504201050 78 184 7.0 11.0 0.00 0.00 0.00 40 1015.3
20260504200550 78 189 5.0 12.0 0.00 0.00 0.00 43 1015.3
20260504200051 78 134 3.0 11.0 0.00 0.00 0.00 44 1015.4
20260504195547 78 236 3.0 11.0 0.00 0.00 0.00 44 1015.4
20260504195047 78 135 6.0 11.0 0.00 0.00 0.00 41 1015.6
20260504194546 78 157 7.0 10.0 0.00 0.00 0.00 43 1015.7
20260504194047 78 153 4.0 10.0 0.00 0.00 0.00 44 1015.7
20260504193547 78 132 5.0 11.0 0.00 0.00 0.00 41 1015.7
20260504193046 78 100 5.0 11.0 0.00 0.00 0.00 43 1015.8
20260504192545 78 126 5.0 11.0 0.00 0.00 0.00 42 1015.8
20260504192044 77 279 1.0 11.0 0.00 0.00 0.00 42 1015.7
20260504191548 78 140 5.0 10.0 0.00 0.00 0.00 40 1016.0
20260504191043 78 111 4.0 10.0 0.00 0.00 0.00 46 1016.0
20260504190543 77 146 4.0 14.0 0.00 0.00 0.00 41 1016.0
20260504190046 78 219 6.0 14.0 0.00 0.00 0.00 42 1016.2
20260504185542 78 182 7.0 14.0 0.00 0.00 0.00 42 1016.2
20260504185040 77 167 6.0 12.0 0.00 0.00 0.00 43 1016.1
20260504184540 77 194 4.0 12.0 0.00 0.00 0.00 46 1016.2
20260504184039 77 194 4.0 12.0 0.00 0.00 0.00 42 1016.3
20260504183539 78 140 5.0 11.0 0.00 0.00 0.00 47 1016.4
20260504183038 77 151 6.0 11.0 0.00 0.00 0.00 43 1016.5
20260504182539 77 195 5.0 14.0 0.00 0.00 0.00 41 1016.4
20260504182035 77 136 5.0 14.0 0.00 0.00 0.00 41 1016.8
20260504181542 77 121 5.0 13.0 0.00 0.00 0.00 41 1016.9
20260504181034 77 147 6.0 13.0 0.00 0.00 0.00 44 1016.9
20260504180533 77 229 6.0 10.0 0.00 0.00 0.00 46 1016.9
20260504180033 77 183 3.0 9.0 0.00 0.00 0.00 48 1017.1
20260504175532 76 267 3.0 12.0 0.00 0.00 0.00 44 1017.0
20260504175032 77 261 5.0 12.0 0.00 0.00 0.00 43 1017.1
20260504174531 77 208 5.0 10.0 0.00 0.00 0.00 47 1017.0
20260504174031 76 126 4.0 9.0 0.00 0.00 0.00 47 1016.9
20260504173530 76 178 3.0 10.0 0.00 0.00 0.00 47 1017.0
20260504173030 76 181 4.0 10.0 0.00 0.00 0.00 47 1017.1
20260504172530 77 194 5.0 11.0 0.00 0.00 0.00 47 1017.2
20260504172031 76 135 6.0 12.0 0.00 0.00 0.00 46 1017.2
20260504171527 76 155 7.0 12.0 0.00 0.00 0.00 49 1017.1
20260504171027 76 167 3.0 10.0 0.00 0.00 0.00 47 1017.0
20260504170526 76 185 5.0 14.0 0.00 0.00 0.00 47 1017.1
20260504151058 74 151 4.0 7.0 0.00 0.00 0.00 48 1017.7
20260504150557 73 142 2.0 7.0 0.00 0.00 0.00 47 1017.6
20260504150106 73 113 3.0 7.0 0.00 0.00 0.00 49 1017.6
20260504141040 70 190 3.0 7.0 0.00 0.00 0.00 68 1017.7
20260504140539 69 244 3.0 6.0 0.00 0.00 0.00 69 1017.8
20260504130523 55 228 0.0 0.0 0.00 0.00 0.00 93 1017.6
20260504110511 50 227 0.0 0.0 0.00 0.00 0.00 91 1017.1
20260504100505 51 227 0.0 0.0 0.00 0.00 0.00 91 1017.1
20260504090107 52 227 0.0 0.0 0.00 0.00 0.00 90 1017.3
20260504081556 52 227 0.0 0.0 0.00 0.00 0.00 90 1017.5
20260504081055 52 226 0.0 0.0 0.00 0.00 0.00 90 1017.4
20260504080554 52 226 0.0 0.0 0.00 0.00 0.00 90 1017.5
20260504050530 56 226 0.0 0.0 0.00 0.00 0.00 85 1018.7